Regional Weather Roundup
Issued by NWS New Orleans/Baton Rouge, LA

Home | Current Version | Previous Version | Text Only | Print | Product List | Glossary On
Versions: 1 2 3 4 5 6 7 8 9 10 11 12 13 14 15 16 17 18 19 20 21 22 23 24 25 26 27 28 29 30 31 32 33 34 35 36 37 38 39 40 41 42 43 44 45 46 47 48 49 50
602
ASUS44 KLIX 221401
RWRLIX
NEW ORLEANS REGIONAL WEATHER ROUNDUP
NATIONAL WEATHER SERVICE NEW ORLEANS LA
900 AM CDT FRI AUG 22 2014

NOTE: "FAIR" INDICATES FEW OR NO CLOUDS BELOW 12,000 FEET WITH NO
      SIGNIFICANT WEATHER AND/OR OBSTRUCTIONS TO VISIBILITY.
      SKY/WX - SKY CONDITION AND SIGNIFICANT WEATHER.
      TMP - AIR TEMPERATURE.     DP    - DEWPOINT TEMPERATURE.
      RH  - RELATIVE HUMIDITY.   PRES  - PRESSURE.
      HI  - HEAT INDEX.          WCI   - WIND CHILL INDEX.

*  THESE STATIONS ARE NOT NWS OR FAA STATIONS AND ARE NOT UNDER
   NWS QUALITY CONTROL.

LAZ038-040-048-061>063-065>067-069-221500-
SOUTHEAST LOUISIANA

CITY           SKY/WX    TMP DP  RH WIND       PRES   REMARKS
N.O. AUDUBON     N/A     87  78  72 MISG        N/A  HX 100
N.O. INTL ARPT MOSUNNY   84  75  74 W3        30.12R
N.O. LAKEFRONT SUNNY     85  75  72 NW5       30.12R
N.O. DOWNTOWN*   N/A     88  72  58 W5        30.12S
SLIDELL        SUNNY     83  72  69 NW6       30.11S
BATON ROUGE    PTSUNNY   80  76  87 NE3       30.12S
BOOTHVILLE     SUNNY     85  76  74 NW7       30.12S
BELLE CHASSE   PTSUNNY   85  74  69 CALM      30.11S
BOGALUSA*        N/A     83  73  71 N3        30.14S
GALLIANO*      NOT AVBL
NEW ROADS*       N/A     80  76  86 CALM      30.13R
GONZALES*        N/A     81  79  92 CALM      30.11S
HAMMOND*       NOT AVBL
HOUMA*         SUNNY     82  73  74 CALM      30.12R
PORT FOURCHON* SUNNY     86  77  74 NE6       30.13S HX  97

$$

MSZ070-080>082-221500-
SOUTHERN MISSISSIPPI

CITY           SKY/WX    TMP DP  RH WIND       PRES   REMARKS
MCCOMB         MOSUNNY   81  75  82 NW7       30.14R
GULFPORT       SUNNY     84  73  69 N7        30.10S
BILOXI         SUNNY     84  73  71 VRB3      30.11S
PASCAGOULA     SUNNY     84  75  74 N5        30.11S
STENNIS ARPT*  SUNNY    N/A N/A N/A VRB6      30.11S

$$

COASTAL OBSERVATIONS
LAKE AND NEARSHORE STATIONS

STATION/POSITION TIME  TEMP    WIND        PRES    WAVE
                       AIR SEA DIR/SP/G            HT/PER
                 (UTC) (F)     (DEG/KT/KT) (MB)    (FT/S)
PASCAGOULA       1300   83     340/  6/  8 1019.0
WAVELAND YACHT   1300   79     350/  6/  7 1019.0
GRAND ISLE       1300   85 88  360/  7/ 10 1020.4
SOUTHWEST PASS   1300   88 87   60/  5/  6 1020.0
NEW CANAL        1300   83 83  350/  3/  4 1020.1
SHELL BEACH      1300   82 82  360/  3/  4 1019.5

OFFSHORE STATIONS

STATION/POSITION TIME  TEMP    WIND        PRES    WAVE
                       AIR SEA DIR/SP/G            HT/PER
                 (UTC) (F)     (DEG/KT/KT) (MB)    (FT/S)
64 S DAUPHIN ISL 1308   86 88  350/  8/ 10 1019.7

$$




USA.gov is the U.S. government's official web portal to all federal, state and local government web resources and services.